Location: Unspecified
(52.4292°N, 19.3359°E)
Time: 22:04:44
(UTC+02:00)

Transit 2A Rocket - Visible Passes

Search period start: 27 May 2024 00:00
Search period end: 06 June 2024 00:00
Orbit: 584 x 909 km, 66.7° (Epoch: 27 May)

Date Brightness Start Highest point End Pass type
(mag) Time Alt. Az. Time Alt. Az. Time Alt. Az.
27 May 7.4 01:58:18 10° ESE 01:58:59 10° E 01:59:41 10° E visible
27 May 5.4 03:35:24 10° SSW 03:40:12 58° ESE 03:45:32 10° NE visible
28 May 6.0 02:51:57 10° S 02:56:22 36° ESE 03:01:16 10° NE visible
29 May 6.6 02:09:03 11° SSE 02:12:40 23° ESE 02:16:45 10° ENE visible
30 May 7.1 01:26:38 10° SE 01:29:05 14° ESE 01:31:38 10° ENE visible
30 May 5.1 03:05:55 12° SSW 03:10:31 73° SE 03:15:59 10° NE visible
31 May 5.6 02:22:56 16° S 02:26:36 46° ESE 02:31:47 10° NE visible
01 Jun 6.2 01:39:55 17° SSE 01:42:50 29° ESE 01:47:25 10° NE visible
01 Jun 5.3 03:19:57 10° SW 03:24:57 63° NW 03:30:30 10° NE visible
02 Jun 6.7 00:56:52 13° SE 00:59:12 18° ESE 01:02:40 10° ENE visible
02 Jun 5.0 02:36:39 15° SW 02:40:51 88° SE 02:46:25 10° NE visible
03 Jun 7.2 00:15:05 10° ESE 00:15:41 10° E 00:16:16 10° E visible
03 Jun 5.2 01:53:33 20° SSW 01:56:52 57° ESE 02:02:15 10° NE visible
03 Jun 6.2 03:34:50 10° WSW 03:39:40 38° NW 03:44:57 10° NNE visible
04 Jun 5.8 01:10:25 22° SSE 01:13:02 36° ESE 01:17:58 10° NE visible
04 Jun 5.6 02:50:23 10° WSW 02:55:22 53° NW 03:00:54 10° NE visible
05 Jun 6.4 00:27:14 18° SE 00:29:19 23° ESE 00:33:27 10° ENE visible
05 Jun 5.1 02:07:01 15° SW 02:11:11 77° NW 02:16:49 10° NE visible
05 Jun 6.9 23:44:01 12° SE 23:45:45 14° ESE 23:48:18 10° ENE visible
